Flag for Canada Weather past 2 weeks in Brandon, Manitoba, Canada

23 °F

Light freezing rain. Low clouds.

Feels Like: 10 °F
Forecast: 12 / 27 °F
Wind: 16 mph from Northeast

Location: Brandon

Current Time: Nov 25, 2015 at 2:20:49 AM

Latest Report: Nov 25, 2015 at 1:00 AM

Visibility: 6 mi

Pressure: 29.96 "Hg

Humidity: 93%

Dew point: 21 °F

Location of BrandonLocation

Historic Weather in Brandon — Graph


Brandon temperature yesterday

Maximum temperature yesterday: 28 °F (at 12:00 AM)
Minimum temperature yesterday: 23 °F (at 6:00 PM)
Average temperature yesterday: 27 °F

Past Weeks' High & Low Weather Summary

High55 °F (Nov 15, 2:00 PM)100% (Nov 10, 1:00 AM)30.45 "Hg (Nov 10, 1:00 AM)
Low3 °F (Nov 20, 10:00 PM)50% (Nov 21, 3:00 PM)29.03 "Hg (Nov 18, 12:00 PM)
Average29 °F85%29.85 "Hg
* Reported Nov 10 1:00 AM — Nov 25 1:00 AM, Brandon, Weather by CustomWeather, © 2015

Note: Actual official high and low records may vary slightly from our data, if they occured in-between our weather recording intervals... More about our weather records


Brandon weather history for previous 24 hours

Time TempWeatherWind HumidityBarometerVisibility
1:00 AM
Wed, Nov 25
23 °FLight freezing rain. Low clouds.16 mph93%29.96 "Hg6 mi
12:00 AM23 °FLight freezing rain. Low clouds.18 mph100%29.96 "Hg6 mi
11:00 PM
Tue, Nov 24
25 °FLight snow. Low clouds.18 mph93%29.97 "Hg5 mi
10:00 PM25 °FLight snow. Low clouds.16 mph93%29.98 "Hg15 mi
9:00 PM25 °FOvercast.16 mph93%30.00 "Hg15 mi
8:00 PM25 °FOvercast.15 mph93%30.03 "Hg15 mi
7:00 PM25 °FMostly cloudy.18 mph86%30.02 "Hg15 mi
6:00 PM23 °FOvercast.17 mph93%30.01 "Hg15 mi
5:00 PM25 °FOvercast.18 mph86%30.01 "Hg15 mi
4:00 PM27 °FOvercast.23 mph86%30.02 "Hg15 mi
3:00 PM28 °FMore clouds than sun.23 mph80%30.03 "Hg15 mi
2:00 PM28 °FMostly cloudy.21 mph80%30.05 "Hg15 mi
1:00 PM28 °FOvercast.21 mph74%30.08 "Hg15 mi
12:00 PM28 °FLow clouds.21 mph74%30.11 "Hg15 mi
11:00 AM28 °FLow clouds.16 mph80%30.13 "Hg15 mi
10:00 AM28 °FLow clouds.12 mph86%30.16 "Hg12 mi
9:00 AM27 °FLow clouds.13 mph93%30.16 "Hg12 mi
8:00 AM27 °FOvercast.13 mph93%30.15 "Hg15 mi
7:00 AM27 °FMostly cloudy.10 mph93%30.15 "Hg15 mi
6:00 AM27 °FOvercast.9 mph93%30.14 "Hg15 mi
5:00 AM27 °FOvercast.10 mph93%30.16 "Hg15 mi
4:00 AM28 °FOvercast.10 mph86%30.15 "Hg15 mi
3:00 AM28 °FOvercast.9 mph86%30.16 "Hg15 mi
2:00 AM28 °FOvercast.10 mph86%30.16 "Hg15 mi
Weather by CustomWeather, © 2015

See weather overviewHow to use our weather pages